San Antonio Stinson, TX

4:56 PM CDT on April 27, 2017 (GMT -0500)
Stinson Municipal

Weather History for KSSF - March, 2012

Change the Weather History Date:

Saturday, March 17, 2012

  Actual Average Record
Temperature  
Mean Temperature 71 °F -  
Max Temperature 78 °F 69 °F 87 °F (2011)
Min Temperature 64 °F 50 °F 33 °F (1997)
Cooling Degree Days 6    
Growing Degree Days 21 (Base 50)    
Moisture  
Dew Point 65 °F    
Average Humidity 84    
Maximum Humidity 100    
Minimum Humidity 66    
Precipitation  
Precipitation 0.00 in - - ()
Sea Level Pressure  
Sea Level Pressure 29.98 in    
Wind  
Wind Speed 10 mph (SE)    
Max Wind Speed 17 mph    
Max Gust Speed 34 mph    
Visibility 10 miles    
Events      
Averages and records for this station are not official NWS values.
T = Trace of Precipitation, MM = Missing Value Source: NWS Daily Summary

Daily Weather History Graph

Daily Weather History Graph

Search for Another Location

Airport or City:

Trip Planner

Search our weather history database for the weather conditions in past years. The results will help you decide how hot, cold, wet, or windy it might be!

Date:

Astronomy

Mar. 17, 2012 Rise Set
Actual Time 7:40 AM CDT 7:43 PM CDT
Civil Twilight 7:16 AM CDT 8:07 PM CDT
Nautical Twilight 6:49 AM CDT 8:35 PM CDT
Astronomical Twilight 6:21 AM CDT 9:02 PM CDT
Moon 4:22 AM CDT (3/17) 3:28 PM CDT (3/17)
Length of Visible Light 12h 50m
Length of Day
12h 03m
Waning Crescent, 23% of the Moon is Illuminated
Mar 17
Waning Crescent
Mar 22
New
Mar 30
First Quarter
Apr 6
Full
Apr 13
Last Quarter

Hourly Weather History & Observations

Time (CDT) Temp. Dew Point Humidity Pressure Visibility Wind Dir Wind Speed Gust Speed Precip Events Conditions
12:22 AM 69.8 °F 66.2 °F 88% 29.97 in 10.0 mi SSE 17.3 mph 34.5 mph N/A   Scattered Clouds
12:50 AM 69.8 °F 64.4 °F 83% 30.02 in 10.0 mi SE 5.8 mph - N/A   Scattered Clouds
12:53 AM 70.0 °F 64.9 °F 84% 29.99 in 10.0 mi SE 12.7 mph 18.4 mph N/A   Scattered Clouds
1:08 AM 69.8 °F 64.4 °F 83% 30.03 in 10.0 mi SSE 4.6 mph - N/A   Mostly Cloudy
1:53 AM 69.1 °F 64.9 °F 87% 30.00 in 10.0 mi SE 4.6 mph - N/A   Overcast
2:24 AM 69.8 °F 66.2 °F 88% 30.03 in 10.0 mi SE 6.9 mph - N/A   Overcast
2:39 AM 69.8 °F 64.4 °F 83% 30.03 in 10.0 mi SE 5.8 mph - N/A   Overcast
2:53 AM 69.1 °F 64.9 °F 87% 30.00 in 10.0 mi SSE 5.8 mph - N/A   Overcast
3:53 AM 69.1 °F 64.9 °F 87% 29.99 in 10.0 mi SSE 5.8 mph - N/A   Overcast
4:53 AM 68.0 °F 64.9 °F 90% 29.96 in 10.0 mi SE 6.9 mph - N/A   Overcast
5:28 AM 66.2 °F 64.4 °F 94% 29.97 in 10.0 mi SE 9.2 mph - N/A   Mostly Cloudy
5:53 AM 66.0 °F 64.9 °F 96% 29.95 in 10.0 mi SE 6.9 mph - N/A   Clear
6:53 AM 66.0 °F 64.0 °F 93% 29.97 in 10.0 mi East 3.5 mph - N/A   Scattered Clouds
7:01 AM 66.2 °F 64.4 °F 94% 29.99 in 9.0 mi East 3.5 mph - N/A   Mostly Cloudy
7:53 AM 64.9 °F 64.0 °F 97% 29.98 in 7.0 mi East 5.8 mph - N/A   Mostly Cloudy
8:48 AM 66.2 °F 66.2 °F 100% 30.02 in 7.0 mi SE 6.9 mph - N/A   Overcast
8:53 AM 66.9 °F 66.0 °F 97% 30.00 in 7.0 mi ESE 5.8 mph - N/A   Overcast
9:53 AM 69.1 °F 66.0 °F 90% 30.01 in 10.0 mi SE 10.4 mph - N/A   Mostly Cloudy
10:53 AM 71.1 °F 66.0 °F 84% 30.04 in 10.0 mi SE 8.1 mph - N/A   Overcast
11:53 AM 73.9 °F 64.9 °F 73% 30.03 in 10.0 mi SSE 10.4 mph - N/A   Overcast
12:53 PM 77.0 °F 66.0 °F 69% 30.00 in 10.0 mi SSE 16.1 mph 23.0 mph N/A   Mostly Cloudy
1:53 PM 75.9 °F 66.0 °F 71% 29.97 in 10.0 mi ESE 13.8 mph - N/A   Scattered Clouds
2:53 PM 77.0 °F 64.9 °F 66% 29.94 in 10.0 mi SSE 12.7 mph - N/A   Mostly Cloudy
3:53 PM 77.0 °F 64.9 °F 66% 29.92 in 10.0 mi SE 9.2 mph - N/A   Mostly Cloudy
4:53 PM 77.0 °F 66.0 °F 69% 29.91 in 10.0 mi ESE 8.1 mph - N/A   Mostly Cloudy
5:53 PM 78.1 °F 66.0 °F 66% 29.89 in 10.0 mi ESE 13.8 mph - N/A   Scattered Clouds
6:53 PM 75.9 °F 64.9 °F 69% 29.90 in 10.0 mi SE 17.3 mph 20.7 mph N/A   Overcast
7:53 PM 73.0 °F 64.0 °F 73% 29.93 in 10.0 mi SE 12.7 mph - N/A   Scattered Clouds
8:53 PM 71.1 °F 64.0 °F 78% 29.95 in 10.0 mi ESE 11.5 mph - N/A   Clear
9:53 PM 70.0 °F 64.9 °F 84% 29.98 in 10.0 mi SE 11.5 mph - N/A   Partly Cloudy
10:53 PM 68.0 °F 64.9 °F 90% 29.99 in 10.0 mi SE 11.5 mph - N/A   Scattered Clouds
11:53 PM 66.9 °F 64.9 °F 93% 29.99 in 10.0 mi SE 8.1 mph - N/A   Clear